| time (UTC) | temp F | wind direction | speed MPH | gust MPH | rain 1hr in | rain 24hr in | rain mn in | humidity % | barometer mb |
| 20260506061005 | 92 | 233 | 0.0 | 1.0 | 0.00 | 0.00 | 0.00 | 67 | 975.5 |
| 20260506060503 | 91 | 194 | 0.0 | 0.0 | 0.00 | 0.00 | 0.00 | 69 | 975.6 |
| 20260506050931 | 92 | 233 | 0.0 | 0.0 | 0.00 | 0.00 | 0.00 | 68 | 976.6 |
| 20260506050429 | 91 | 246 | 0.0 | 0.0 | 0.00 | 0.00 | 0.00 | 68 | 976.6 |
| 20260506044920 | 91 | 235 | 0.0 | 1.0 | 0.00 | 0.00 | 0.00 | 70 | 976.9 |
| 20260506044418 | 90 | 235 | 0.0 | 0.0 | 0.00 | 0.00 | 0.00 | 71 | 976.8 |
| 20260506043914 | 89 | 181 | 0.0 | 1.0 | 0.00 | 0.00 | 0.00 | 71 | 976.8 |
| 20260506043412 | 89 | 249 | 0.0 | 0.0 | 0.00 | 0.00 | 0.00 | 71 | 976.9 |
| 20260506042910 | 88 | 203 | 0.0 | 1.0 | 0.00 | 0.00 | 0.00 | 74 | 977.1 |
| 20260506042409 | 88 | 255 | 1.0 | 1.0 | 0.00 | 0.00 | 0.00 | 71 | 977.0 |
| 20260506041906 | 89 | 176 | 1.0 | 2.0 | 0.00 | 0.00 | 0.00 | 72 | 977.0 |
| 20260506041404 | 89 | 178 | 0.0 | 0.0 | 0.00 | 0.00 | 0.00 | 71 | 977.2 |
| 20260506040901 | 88 | 178 | 0.0 | 1.0 | 0.00 | 0.00 | 0.00 | 75 | 977.3 |
| 20260506040358 | 89 | 178 | 0.0 | 0.0 | 0.00 | 0.00 | 0.00 | 71 | 977.5 |
| 20260506035854 | 88 | 178 | 0.0 | 0.0 | 0.00 | 0.00 | 0.00 | 72 | 977.5 |
| 20260506035352 | 89 | 178 | 1.0 | 1.0 | 0.00 | 0.00 | 0.00 | 74 | 977.6 |
| 20260506034849 | 89 | 178 | 0.0 | 0.0 | 0.00 | 0.00 | 0.00 | 74 | 977.3 |
| 20260506034346 | 88 | 237 | 0.0 | 1.0 | 0.00 | 0.00 | 0.00 | 72 | 977.3 |
| 20260506033843 | 88 | 241 | 0.0 | 1.0 | 0.00 | 0.00 | 0.00 | 74 | 977.6 |
| 20260506033340 | 88 | 260 | 1.0 | 1.0 | 0.00 | 0.00 | 0.00 | 71 | 977.7 |
| 20260506032837 | 87 | 259 | 0.0 | 0.0 | 0.00 | 0.00 | 0.00 | 75 | 977.7 |
| 20260506032333 | 87 | 238 | 0.0 | 0.0 | 0.00 | 0.00 | 0.00 | 76 | 977.7 |
| 20260506031830 | 87 | 227 | 0.0 | 0.0 | 0.00 | 0.00 | 0.00 | 76 | 977.6 |
| 20260506031328 | 86 | 239 | 0.0 | 0.0 | 0.00 | 0.00 | 0.00 | 75 | 977.7 |
| 20260506030825 | 87 | 191 | 0.0 | 0.0 | 0.00 | 0.00 | 0.00 | 73 | 977.6 |
| 20260506030323 | 86 | 231 | 0.0 | 0.0 | 0.00 | 0.00 | 0.00 | 75 | 977.8 |
| 20260506025820 | 86 | 246 | 0.0 | 1.0 | 0.00 | 0.00 | 0.00 | 76 | 978.0 |
| 20260506025316 | 88 | 17 | 1.0 | 1.0 | 0.00 | 0.00 | 0.00 | 72 | 977.8 |
| 20260506024813 | 85 | 236 | 0.0 | 0.0 | 0.00 | 0.00 | 0.00 | 75 | 977.8 |
| 20260506024310 | 85 | 225 | 0.0 | 0.0 | 0.00 | 0.00 | 0.00 | 77 | 977.7 |
| 20260506023806 | 85 | 242 | 0.0 | 1.0 | 0.00 | 0.00 | 0.00 | 78 | 978.0 |
| 20260506023303 | 84 | 224 | 0.0 | 1.0 | 0.00 | 0.00 | 0.00 | 79 | 978.0 |
| 20260506022759 | 85 | 200 | 0.0 | 0.0 | 0.00 | 0.00 | 0.00 | 75 | 978.0 |
| 20260506022258 | 84 | 221 | 0.0 | 0.0 | 0.00 | 0.00 | 0.00 | 80 | 977.8 |
| 20260506021755 | 82 | 235 | 0.0 | 1.0 | 0.00 | 0.00 | 0.00 | 83 | 977.9 |
| 20260506021252 | 82 | 243 | 0.0 | 1.0 | 0.00 | 0.00 | 0.00 | 81 | 977.9 |
| 20260506020749 | 81 | 241 | 0.0 | 1.0 | 0.00 | 0.00 | 0.00 | 83 | 977.7 |
| 20260506020247 | 81 | 226 | 0.0 | 1.0 | 0.00 | 0.00 | 0.00 | 83 | 977.8 |
| 20260506015744 | 81 | 250 | 0.0 | 1.0 | 0.00 | 0.00 | 0.00 | 83 | 977.9 |
| 20260506015241 | 80 | 233 | 0.0 | 0.0 | 0.00 | 0.00 | 0.00 | 84 | 978.2 |
| 20260506014738 | 80 | 226 | 0.0 | 0.0 | 0.00 | 0.00 | 0.00 | 84 | 977.8 |
| 20260506014235 | 81 | 226 | 0.0 | 0.0 | 0.00 | 0.00 | 0.00 | 83 | 977.8 |
| 20260506013732 | 80 | 225 | 0.0 | 0.0 | 0.00 | 0.00 | 0.00 | 85 | 977.6 |
| 20260506013229 | 80 | 221 | 0.0 | 0.0 | 0.00 | 0.00 | 0.00 | 84 | 977.9 |
| 20260506012725 | 80 | 219 | 0.0 | 0.0 | 0.00 | 0.00 | 0.00 | 87 | 977.7 |
| 20260506012222 | 79 | 221 | 0.0 | 0.0 | 0.00 | 0.00 | 0.00 | 88 | 977.7 |
| 20260506011720 | 80 | 220 | 0.0 | 0.0 | 0.00 | 0.00 | 0.00 | 87 | 977.7 |
| 20260506011215 | 80 | 221 | 0.0 | 0.0 | 0.00 | 0.00 | 0.00 | 86 | 977.7 |
| 20260506010714 | 82 | 225 | 0.0 | 1.0 | 0.00 | 0.00 | 0.00 | 83 | 977.7 |
| 20260506010211 | 80 | 224 | 0.0 | 0.0 | 0.00 | 0.00 | 0.00 | 86 | 977.6 |
| 20260506005708 | 80 | 251 | 0.0 | 1.0 | 0.00 | 0.00 | 0.00 | 86 | 977.9 |
| 20260506005205 | 79 | 238 | 0.0 | 0.0 | 0.00 | 0.00 | 0.00 | 87 | 977.6 |
| 20260506004655 | 76 | 222 | 0.0 | 0.0 | 0.00 | 0.00 | 0.00 | 91 | 977.6 |
| 20260506004153 | 76 | 222 | 0.0 | 0.0 | 0.00 | 0.00 | 0.00 | 91 | 977.5 |
| 20260506003649 | 76 | 222 | 0.0 | 0.0 | 0.00 | 0.00 | 0.00 | 91 | 977.5 |
| 20260506003146 | 76 | 222 | 0.0 | 0.0 | 0.00 | 0.00 | 0.00 | 91 | 977.3 |
| 20260506002641 | 76 | 222 | 0.0 | 0.0 | 0.00 | 0.00 | 0.00 | 91 | 977.6 |
| 20260506002138 | 76 | 222 | 0.0 | 0.0 | 0.00 | 0.00 | 0.00 | 91 | 977.3 |
| 20260506001633 | 76 | 222 | 0.0 | 0.0 | 0.00 | 0.00 | 0.00 | 91 | 977.3 |
| 20260506001131 | 75 | 217 | 0.0 | 0.0 | 0.00 | 0.00 | 0.00 | 93 | 977.5 |
| 20260506000628 | 75 | 217 | 0.0 | 0.0 | 0.00 | 0.00 | 0.00 | 93 | 977.1 |
| 20260506000125 | 76 | 220 | 0.0 | 0.0 | 0.00 | 0.00 | 0.00 | 92 | 977.0 |
| 20260505235623 | 76 | 216 | 0.0 | 0.0 | 0.00 | 0.00 | 0.00 | 92 | 977.2 |
| 20260505235120 | 76 | 216 | 0.0 | 0.0 | 0.00 | 0.00 | 0.00 | 92 | 977.0 |
| 20260505234617 | 73 | 217 | 0.0 | 0.0 | 0.00 | 0.00 | 0.00 | 98 | 977.0 |
| 20260505234114 | 73 | 217 | 0.0 | 0.0 | 0.00 | 0.00 | 0.00 | 98 | 977.0 |
| 20260505233612 | 73 | 217 | 0.0 | 0.0 | 0.00 | 0.00 | 0.00 | 98 | 977.0 |
| 20260505233109 | 71 | 219 | 0.0 | 0.0 | 0.00 | 0.00 | 0.00 | 99 | 976.6 |
| 20260505232606 | 71 | 219 | 0.0 | 0.0 | 0.00 | 0.00 | 0.00 | 99 | 976.7 |
| 20260505232104 | 71 | 219 | 0.0 | 0.0 | 0.00 | 0.00 | 0.00 | 99 | 976.9 |
| 20260505231600 | 71 | 219 | 0.0 | 0.0 | 0.00 | 0.00 | 0.00 | 99 | 976.8 |
| 20260505231059 | 71 | 212 | 0.0 | 0.0 | 0.00 | 0.00 | 0.00 | 99 | 976.5 |
| 20260505230556 | 71 | 212 | 0.0 | 0.0 | 0.00 | 0.00 | 0.00 | 99 | 976.6 |
| 20260505230052 | 71 | 212 | 0.0 | 0.0 | 0.00 | 0.00 | 0.00 | 99 | 976.7 |
| 20260505225549 | 71 | 212 | 0.0 | 0.0 | 0.00 | 0.00 | 0.00 | 99 | 976.4 |
| 20260505225045 | 71 | 216 | 0.0 | 0.0 | 0.00 | 0.00 | 0.00 | 99 | 976.5 |
| 20260505224537 | 71 | 215 | 0.0 | 0.0 | 0.00 | 0.00 | 0.00 | 99 | 976.6 |
| 20260505224034 | 71 | 216 | 0.0 | 0.0 | 0.00 | 0.00 | 0.00 | 99 | 976.5 |
| 20260505223531 | 71 | 215 | 0.0 | 0.0 | 0.00 | 0.00 | 0.00 | 98 | 976.3 |
| 20260505223027 | 71 | 215 | 0.0 | 0.0 | 0.00 | 0.00 | 0.00 | 98 | 976.4 |
| 20260505222524 | 71 | 215 | 0.0 | 0.0 | 0.00 | 0.00 | 0.00 | 98 | 976.3 |
| 20260505222019 | 71 | 215 | 0.0 | 0.0 | 0.00 | 0.00 | 0.00 | 98 | 976.3 |
| 20260505221517 | 71 | 215 | 0.0 | 0.0 | 0.00 | 0.00 | 0.00 | 98 | 976.2 |
| 20260505221014 | 71 | 219 | 0.0 | 0.0 | 0.00 | 0.00 | 0.00 | 98 | 976.3 |
| 20260505220511 | 71 | 219 | 0.0 | 0.0 | 0.00 | 0.00 | 0.00 | 98 | 976.0 |
| 20260505220009 | 71 | 219 | 0.0 | 0.0 | 0.00 | 0.00 | 0.00 | 98 | 976.1 |
| 20260505215507 | 71 | 218 | 0.0 | 0.0 | 0.00 | 0.00 | 0.00 | 98 | 975.9 |
| 20260505215004 | 71 | 217 | 0.0 | 0.0 | 0.00 | 0.00 | 0.00 | 98 | 975.9 |
| 20260505214502 | 71 | 217 | 0.0 | 0.0 | 0.00 | 0.00 | 0.00 | 97 | 975.8 |
| 20260505213959 | 71 | 218 | 0.0 | 0.0 | 0.00 | 0.00 | 0.00 | 97 | 975.7 |
| 20260505213456 | 71 | 217 | 0.0 | 0.0 | 0.00 | 0.00 | 0.00 | 97 | 975.6 |
| 20260505212952 | 71 | 218 | 0.0 | 0.0 | 0.00 | 0.00 | 0.00 | 97 | 975.7 |
| 20260505212449 | 71 | 218 | 0.0 | 0.0 | 0.00 | 0.00 | 0.00 | 97 | 975.6 |
| 20260505211946 | 71 | 220 | 0.0 | 0.0 | 0.00 | 0.00 | 0.00 | 97 | 975.4 |
| 20260505211443 | 71 | 218 | 0.0 | 0.0 | 0.00 | 0.00 | 0.00 | 96 | 975.5 |
| 20260505210939 | 72 | 218 | 0.0 | 0.0 | 0.00 | 0.00 | 0.00 | 96 | 975.7 |
| 20260505210437 | 72 | 223 | 0.0 | 0.0 | 0.00 | 0.00 | 0.00 | 97 | 975.7 |
| 20260505205933 | 72 | 218 | 0.0 | 0.0 | 0.00 | 0.00 | 0.00 | 96 | 975.8 |
| 20260505205432 | 71 | 214 | 0.0 | 0.0 | 0.00 | 0.00 | 0.00 | 95 | 975.6 |
| 20260505204928 | 71 | 216 | 0.0 | 0.0 | 0.00 | 0.00 | 0.00 | 95 | 975.7 |
| 20260505204426 | 71 | 215 | 0.0 | 0.0 | 0.00 | 0.00 | 0.00 | 95 | 975.5 |
| 20260505203923 | 71 | 215 | 0.0 | 0.0 | 0.00 | 0.00 | 0.00 | 95 | 975.7 |
| 20260505203419 | 72 | 215 | 0.0 | 0.0 | 0.00 | 0.00 | 0.00 | 95 | 975.5 |
| 20260505202916 | 72 | 215 | 0.0 | 0.0 | 0.00 | 0.00 | 0.00 | 95 | 975.5 |
| 20260505202412 | 72 | 238 | 0.0 | 0.0 | 0.00 | 0.00 | 0.00 | 94 | 975.5 |
| 20260505201909 | 72 | 218 | 0.0 | 0.0 | 0.00 | 0.00 | 0.00 | 94 | 975.6 |
| 20260505201406 | 72 | 217 | 0.0 | 0.0 | 0.00 | 0.00 | 0.00 | 94 | 975.5 |
| 20260505200904 | 72 | 205 | 0.0 | 0.0 | 0.00 | 0.00 | 0.00 | 93 | 975.6 |
| 20260505200401 | 72 | 205 | 0.0 | 0.0 | 0.00 | 0.00 | 0.00 | 93 | 975.4 |
| 20260505195856 | 72 | 198 | 0.0 | 0.0 | 0.00 | 0.00 | 0.00 | 93 | 975.9 |
| 20260505195354 | 72 | 192 | 0.0 | 1.0 | 0.00 | 0.00 | 0.00 | 93 | 975.7 |
| 20260505194851 | 72 | 196 | 0.0 | 1.0 | 0.00 | 0.00 | 0.00 | 93 | 975.8 |
| 20260505194348 | 72 | 195 | 0.0 | 0.0 | 0.00 | 0.00 | 0.00 | 93 | 975.6 |
| 20260505193843 | 72 | 210 | 0.0 | 0.0 | 0.00 | 0.00 | 0.00 | 93 | 975.8 |
| 20260505193341 | 72 | 203 | 0.0 | 0.0 | 0.00 | 0.00 | 0.00 | 93 | 975.8 |
| 20260505192838 | 72 | 174 | 1.0 | 1.0 | 0.00 | 0.00 | 0.00 | 92 | 976.0 |
| 20260505192337 | 72 | 178 | 1.0 | 1.0 | 0.00 | 0.00 | 0.00 | 93 | 975.7 |
| 20260505191834 | 72 | 210 | 0.0 | 0.0 | 0.00 | 0.00 | 0.00 | 94 | 975.6 |
| 20260505191333 | 72 | 219 | 0.0 | 0.0 | 0.00 | 0.00 | 0.00 | 96 | 975.9 |
| 20260505190829 | 72 | 219 | 0.0 | 0.0 | 0.00 | 0.00 | 0.00 | 96 | 975.9 |
| 20260505190324 | 72 | 223 | 0.0 | 0.0 | 0.00 | 0.00 | 0.00 | 96 | 976.0 |
| 20260505185820 | 72 | 209 | 0.0 | 0.0 | 0.00 | 0.00 | 0.00 | 95 | 976.0 |
| 20260505185317 | 72 | 214 | 0.0 | 0.0 | 0.00 | 0.00 | 0.00 | 95 | 975.9 |
| 20260505184813 | 73 | 224 | 0.0 | 0.0 | 0.00 | 0.00 | 0.00 | 95 | 975.9 |
| 20260505184310 | 73 | 209 | 0.0 | 1.0 | 0.00 | 0.00 | 0.00 | 95 | 976.1 |
| 20260505183807 | 73 | 204 | 0.0 | 1.0 | 0.00 | 0.00 | 0.00 | 95 | 976.0 |
| 20260505183304 | 73 | 193 | 0.0 | 0.0 | 0.00 | 0.00 | 0.00 | 95 | 976.1 |
| 20260505182801 | 73 | 213 | 0.0 | 0.0 | 0.00 | 0.00 | 0.00 | 95 | 976.3 |
| 20260505182257 | 73 | 215 | 0.0 | 0.0 | 0.00 | 0.00 | 0.00 | 94 | 976.4 |
| 20260505181754 | 73 | 196 | 0.0 | 1.0 | 0.00 | 0.00 | 0.00 | 94 | 976.2 |
| 20260505181252 | 74 | 171 | 1.0 | 1.0 | 0.00 | 0.00 | 0.00 | 93 | 976.3 |
| 20260505180748 | 74 | 184 | 0.0 | 1.0 | 0.00 | 0.00 | 0.00 | 93 | 976.2 |
| 20260505180244 | 74 | 212 | 0.0 | 0.0 | 0.00 | 0.00 | 0.00 | 92 | 976.3 |
| 20260505175741 | 75 | 205 | 0.0 | 0.0 | 0.00 | 0.00 | 0.00 | 93 | 976.3 |
| 20260505175237 | 75 | 215 | 0.0 | 0.0 | 0.00 | 0.00 | 0.00 | 96 | 976.3 |
| 20260505174734 | 75 | 205 | 0.0 | 0.0 | 0.00 | 0.00 | 0.00 | 96 | 976.5 |
| 20260505174231 | 75 | 213 | 0.0 | 0.0 | 0.00 | 0.00 | 0.00 | 96 | 976.5 |
| 20260505173727 | 75 | 221 | 0.0 | 0.0 | 0.00 | 0.00 | 0.00 | 97 | 976.5 |
| 20260505173224 | 75 | 222 | 0.0 | 0.0 | 0.00 | 0.00 | 0.00 | 97 | 976.7 |
| 20260505172721 | 76 | 155 | 0.0 | 1.0 | 0.00 | 0.00 | 0.00 | 97 | 977.2 |
| 20260505172218 | 75 | 153 | 0.0 | 0.0 | 0.00 | 0.00 | 0.00 | 97 | 977.1 |
| 20260505171718 | 76 | 153 | 0.0 | 0.0 | 0.00 | 0.00 | 0.00 | 96 | 976.9 |
| 20260505171215 | 76 | 153 | 0.0 | 0.0 | 0.00 | 0.00 | 0.00 | 96 | 977.2 |
| 20260505170712 | 76 | 153 | 0.0 | 0.0 | 0.00 | 0.00 | 0.00 | 96 | 977.2 |
| 20260505170209 | 75 | 153 | 0.0 | 0.0 | 0.00 | 0.00 | 0.00 | 96 | 977.1 |
| 20260505165704 | 76 | 153 | 0.0 | 0.0 | 0.00 | 1.26 | 1.26 | 96 | 977.2 |
| 20260505165200 | 76 | 153 | 0.0 | 0.0 | 0.00 | 1.26 | 1.26 | 96 | 977.3 |
| 20260505164656 | 76 | 153 | 0.0 | 0.0 | 0.00 | 1.26 | 1.26 | 96 | 977.1 |
| 20260505164153 | 76 | 153 | 0.0 | 0.0 | 0.00 | 1.26 | 1.26 | 96 | 977.2 |
| 20260505163651 | 76 | 153 | 0.0 | 0.0 | 0.00 | 1.26 | 1.26 | 96 | 977.0 |
| 20260505163149 | 76 | 152 | 0.0 | 0.0 | 0.00 | 1.26 | 1.26 | 96 | 977.2 |
| 20260505162646 | 76 | 152 | 0.0 | 0.0 | 0.00 | 1.26 | 1.26 | 96 | 977.1 |
| 20260505162144 | 76 | 152 | 0.0 | 0.0 | 0.00 | 1.26 | 1.26 | 96 | 977.3 |
| 20260505161640 | 76 | 152 | 0.0 | 0.0 | 0.00 | 1.26 | 1.26 | 96 | 976.9 |
| 20260505161138 | 76 | 152 | 0.0 | 0.0 | 0.00 | 1.26 | 1.26 | 96 | 976.9 |
| 20260505160636 | 76 | 152 | 0.0 | 0.0 | 0.00 | 1.26 | 1.26 | 96 | 977.1 |
| 20260505160133 | 76 | 152 | 0.0 | 0.0 | 0.00 | 1.26 | 1.26 | 95 | 977.1 |
| 20260505153112 | 76 | 152 | 0.0 | 0.0 | 0.00 | 1.26 | 1.26 | 94 | 977.2 |
| 20260505152609 | 76 | 152 | 0.0 | 0.0 | 0.00 | 1.26 | 1.26 | 94 | 977.0 |
| 20260505152104 | 76 | 151 | 0.0 | 0.0 | 0.00 | 1.26 | 1.26 | 94 | 977.2 |
| 20260505151600 | 76 | 151 | 0.0 | 0.0 | 0.00 | 1.26 | 1.26 | 94 | 977.3 |
| 20260505151058 | 76 | 151 | 0.0 | 0.0 | 0.00 | 1.26 | 1.26 | 94 | 977.1 |
| 20260505150554 | 76 | 151 | 0.0 | 0.0 | 0.00 | 1.26 | 1.26 | 93 | 977.3 |
| 20260505140519 | 77 | 150 | 0.0 | 0.0 | 0.00 | 1.26 | 1.26 | 95 | 976.1 |
| 20260505124932 | 79 | 147 | 0.0 | 0.0 | 0.00 | 1.26 | 1.26 | 93 | 975.2 |
| 20260505124429 | 79 | 147 | 0.0 | 0.0 | 0.00 | 1.26 | 1.26 | 91 | 975.1 |
| 20260505123925 | 79 | 147 | 0.0 | 0.0 | 0.00 | 1.26 | 1.26 | 91 | 974.8 |
| 20260505123422 | 80 | 147 | 0.0 | 0.0 | 0.00 | 1.26 | 1.26 | 91 | 975.1 |
| 20260505122918 | 79 | 147 | 0.0 | 0.0 | 0.00 | 1.26 | 1.26 | 89 | 974.7 |
| 20260505122416 | 79 | 147 | 0.0 | 0.0 | 0.00 | 1.26 | 1.26 | 89 | 974.8 |
| 20260505121912 | 79 | 147 | 0.0 | 0.0 | 0.00 | 1.26 | 1.26 | 89 | 974.7 |
| 20260505121409 | 80 | 147 | 0.0 | 0.0 | 0.00 | 1.26 | 1.26 | 88 | 974.8 |
| 20260505120905 | 80 | 147 | 0.0 | 0.0 | 0.00 | 1.26 | 1.26 | 88 | 974.7 |
| 20260505120402 | 80 | 147 | 0.0 | 0.0 | 0.00 | 1.26 | 1.26 | 87 | 974.5 |
| 20260505115900 | 80 | 147 | 0.0 | 0.0 | 0.00 | 1.26 | 1.26 | 87 | 974.4 |
| 20260505115357 | 80 | 147 | 0.0 | 0.0 | 0.00 | 1.26 | 1.26 | 86 | 974.3 |
| 20260505114855 | 80 | 147 | 0.0 | 0.0 | 0.00 | 1.26 | 1.26 | 86 | 974.3 |
| 20260505114351 | 80 | 147 | 0.0 | 0.0 | 0.00 | 1.26 | 1.26 | 86 | 974.4 |
| 20260505113848 | 81 | 147 | 0.0 | 0.0 | 0.00 | 1.26 | 1.26 | 85 | 974.5 |
| 20260505113344 | 81 | 147 | 0.0 | 0.0 | 0.00 | 1.26 | 1.26 | 84 | 974.4 |
| 20260505112840 | 81 | 147 | 0.0 | 0.0 | 0.00 | 1.26 | 1.26 | 83 | 974.2 |
| 20260505112338 | 81 | 147 | 0.0 | 0.0 | 0.00 | 1.26 | 1.26 | 83 | 974.3 |
| 20260505111833 | 82 | 147 | 0.0 | 0.0 | 0.00 | 1.26 | 1.26 | 83 | 974.2 |
| 20260505111329 | 82 | 147 | 0.0 | 0.0 | 0.00 | 1.26 | 1.26 | 82 | 974.2 |
| 20260505110825 | 82 | 147 | 0.0 | 0.0 | 0.00 | 1.26 | 1.26 | 82 | 974.2 |
| 20260505110323 | 82 | 147 | 0.0 | 0.0 | 0.00 | 1.26 | 1.26 | 82 | 974.0 |
| 20260505101757 | 84 | 147 | 0.0 | 0.0 | 0.00 | 1.26 | 1.26 | 81 | 974.4 |
| 20260505101253 | 84 | 147 | 0.0 | 0.0 | 0.00 | 1.26 | 1.26 | 81 | 974.4 |
| 20260505100749 | 84 | 147 | 0.0 | 0.0 | 0.00 | 1.26 | 1.26 | 81 | 974.5 |
| 20260505100246 | 84 | 147 | 0.0 | 0.0 | 0.00 | 1.26 | 1.26 | 81 | 974.4 |
| 20260505095741 | 84 | 147 | 0.0 | 0.0 | 0.00 | 1.26 | 1.26 | 82 | 974.3 |
| 20260505095240 | 84 | 147 | 0.0 | 0.0 | 0.00 | 1.26 | 1.26 | 81 | 974.5 |
| 20260505094735 | 84 | 147 | 0.0 | 0.0 | 0.00 | 1.26 | 1.26 | 81 | 974.9 |
| 20260505094232 | 84 | 147 | 0.0 | 0.0 | 0.00 | 1.26 | 1.26 | 81 | 974.6 |
| 20260505093728 | 84 | 147 | 0.0 | 0.0 | 0.00 | 1.26 | 1.26 | 80 | 974.7 |
| 20260505093226 | 85 | 147 | 0.0 | 0.0 | 0.00 | 1.26 | 1.26 | 79 | 974.7 |
| 20260505092722 | 85 | 147 | 0.0 | 0.0 | 0.00 | 1.26 | 1.26 | 80 | 974.7 |
| 20260505092221 | 85 | 147 | 0.0 | 0.0 | 0.00 | 1.26 | 1.26 | 79 | 975.0 |
| 20260505091718 | 86 | 147 | 0.0 | 0.0 | 0.00 | 1.26 | 1.26 | 77 | 974.9 |
| 20260505091216 | 86 | 147 | 0.0 | 0.0 | 0.00 | 1.26 | 1.26 | 77 | 975.1 |
| 20260505090713 | 87 | 140 | 0.0 | 0.0 | 0.00 | 1.26 | 1.26 | 76 | 975.4 |
| 20260505090211 | 87 | 140 | 0.0 | 0.0 | 0.00 | 1.26 | 1.26 | 77 | 975.1 |
| 20260505085708 | 88 | 139 | 0.0 | 0.0 | 0.00 | 1.26 | 1.26 | 76 | 975.2 |
| 20260505085207 | 87 | 140 | 0.0 | 0.0 | 0.00 | 1.26 | 1.26 | 78 | 975.1 |
| 20260505084704 | 87 | 139 | 0.0 | 0.0 | 0.00 | 1.26 | 1.26 | 77 | 975.1 |
| 20260505084203 | 87 | 140 | 0.0 | 0.0 | 0.00 | 1.26 | 1.26 | 73 | 975.1 |
| 20260505083659 | 88 | 139 | 0.0 | 0.0 | 0.00 | 1.26 | 1.26 | 75 | 975.4 |
| 20260505083155 | 87 | 139 | 0.0 | 0.0 | 0.00 | 1.26 | 1.26 | 74 | 975.5 |
| 20260505082651 | 87 | 102 | 0.0 | 0.0 | 0.00 | 1.26 | 1.26 | 77 | 975.4 |
| 20260505082148 | 87 | 335 | 0.0 | 0.0 | 0.00 | 1.26 | 1.26 | 74 | 975.4 |
| 20260505081644 | 88 | 227 | 0.0 | 0.0 | 0.00 | 1.26 | 1.26 | 77 | 975.5 |
| 20260505081142 | 87 | 208 | 0.0 | 1.0 | 0.00 | 1.26 | 1.26 | 78 | 975.7 |
| 20260505080639 | 86 | 216 | 0.0 | 0.0 | 0.00 | 1.26 | 1.26 | 81 | 975.6 |
| 20260505080135 | 85 | 218 | 0.0 | 0.0 | 0.00 | 1.26 | 1.26 | 84 | 975.5 |
| 20260505075631 | 85 | 222 | 0.0 | 0.0 | 0.00 | 1.26 | 1.26 | 85 | 975.4 |
| 20260505075128 | 84 | 229 | 0.0 | 0.0 | 0.00 | 1.26 | 1.26 | 84 | 975.6 |
| 20260505074625 | 84 | 229 | 0.0 | 0.0 | 0.00 | 1.26 | 1.26 | 84 | 975.9 |
| 20260505074122 | 84 | 229 | 0.0 | 0.0 | 0.00 | 1.26 | 1.26 | 84 | 975.9 |
| 20260505073620 | 84 | 229 | 0.0 | 0.0 | 0.00 | 1.26 | 1.26 | 83 | 976.3 |
| 20260505073118 | 85 | 229 | 0.0 | 0.0 | 0.00 | 1.26 | 1.26 | 83 | 976.2 |
| 20260505072613 | 85 | 229 | 0.0 | 0.0 | 0.00 | 1.26 | 1.26 | 80 | 976.3 |
| 20260505072110 | 85 | 229 | 0.0 | 0.0 | 0.00 | 1.26 | 1.26 | 81 | 976.7 |
| 20260505071605 | 85 | 229 | 0.0 | 0.0 | 0.00 | 1.26 | 1.26 | 81 | 976.9 |
| 20260505071103 | 85 | 224 | 0.0 | 0.0 | 0.00 | 1.26 | 1.26 | 81 | 976.7 |
| 20260505070600 | 86 | 226 | 0.0 | 0.0 | 0.00 | 1.26 | 1.26 | 79 | 976.9 |
| 20260505070056 | 86 | 217 | 0.0 | 0.0 | 0.00 | 1.26 | 1.26 | 83 | 976.9 |
| 20260505065552 | 86 | 217 | 0.0 | 0.0 | 0.00 | 1.26 | 1.26 | 83 | 976.9 |
| 20260505065049 | 86 | 217 | 0.0 | 0.0 | 0.00 | 1.26 | 1.26 | 83 | 977.0 |
| 20260505064546 | 86 | 221 | 0.0 | 0.0 | 0.00 | 1.26 | 1.26 | 81 | 977.2 |
| 20260505064045 | 86 | 221 | 0.0 | 0.0 | 0.00 | 1.26 | 1.26 | 81 | 977.2 |
| 20260505063542 | 86 | 220 | 0.0 | 0.0 | 0.00 | 1.26 | 1.26 | 79 | 977.1 |
| 20260505063037 | 86 | 217 | 0.0 | 0.0 | 0.00 | 1.26 | 1.26 | 76 | 977.6 |
| 20260505062534 | 86 | 210 | 0.0 | 0.0 | 0.00 | 1.26 | 1.26 | 75 | 977.3 |
| 20260505062031 | 87 | 214 | 0.0 | 0.0 | 0.00 | 1.26 | 1.26 | 76 | 977.8 |
| 20260505061529 | 88 | 225 | 0.0 | 0.0 | 0.00 | 1.26 | 1.26 | 76 | 977.6 |